Regional Weather Roundup
Issued by NWS Goodland, KS

Home | Current Version | Previous Version | Text Only | Print | Product List | Glossary Off
Versions: 1 2 3 4 5 6 7 8 9 10 11 12 13 14 15 16 17 18 19 20 21 22 23 24 25 26 27 28 29 30 31 32 33 34 35 36 37 38 39 40 41 42 43 44 45 46 47 48 49 50

000
ASUS43 KGLD 170059
RWRGLD

GOODLAND FORECAST AREA HOURLY WEATHER ROUNDUP
NATIONAL WEATHER SERVICE GOODLAND KS
700 PM MDT MON OCT 16 2017

...OFFICIAL OBSERVATIONS...

CITY           SKY/WX    TMP DP  RH WIND       PRES   REMARKS
GOODLAND KS    CLOUDY    60  36  40 S12       30.13R
HILL CITY KS   CLOUDY    63  36  36 S5        30.13R
IMPERIAL NEB   CLOUDY    61  27  27 NW5       30.10R
MCCOOK NEB     CLOUDY    65  37  35 S10       30.09R
AKRON CO       NOT AVBL
BURLINGTON CO  CLOUDY    63  29  27 SW12      30.17R
LIMON CO       CLEAR     42  24  49 N6        30.23R
$$

...UNOFFICIAL OBSERVATIONS...

CITY           SKY/WX    TMP DP  RH WIND       PRES   REMARKS
NORTON KS      CLEAR     63  28  27 S9        30.10R
SHARON SPRINGS   N/A     63  33  33 S5          N/A
TRENTON NEB      N/A     62  32  32 CALM        N/A
KIT CARSON CO    N/A     60  30  32 CALM        N/A
YUMA CO        FAIR      57  16  19 N3        30.15R
$$



USA.gov is the U.S. government's official web portal to all federal, state and local government web resources and services.